C/2005 EL173 (LONEOS)
Epoch 2007 Mar. 1.0 TT = JDT 2454160.5  
T 2007 Mar. 5.87017 TT                                  Nakano
q   3.8863396            (2000.0)            P               Q
z  -0.0008675      Peri.  261.49326     +0.02631337     +0.97967012
 +/-0.0000007      Node   344.79636     +0.90469473     -0.10797036
e   1.0033713      Incl.  130.67959     -0.42524706     -0.16908240
From 313 observations 2005 Mar. 3-2008 Nov. 17, mean residual 0".59.
   (1/a)org.= +0.000034, (1/a)fut.= -0.000047 (+/-0.000001), Q= 8.
   The comet has passed 2.82 AU from Jupiter on 2004 Nov. 17 UT.
Residuals in seconds of arc 
2005/                     060228 170  0.2-  0.5-    070204 D88  0.4-  0.0   
050303 691  0.5+  0.1-    060228 170  0.3-  0.6-    070204 D88  0.9-  0.5+  
050303 691  0.1+  0.2-    060228 170  0.1+  0.1-    070204 D88  0.5-  0.3+  
050303 691  0.2+  0.3-    060301 I05  0.1-  0.4-    070211 349  0.7-  1.0+  
050308 699  0.1+  0.5+    060301 I05  0.1-  0.1-    070211 349  1.1-  1.1+  
050308 699 (2.4+  0.8+)   060302 104  0.2-  0.2-    070212 D88  0.9-  0.9+  
050308 699  0.7+  0.0     060302 104  0.3-  0.1-    070212 D88  0.1-  0.4+  
050308 699  0.8+  0.9-    060302 104  0.2-  0.1-    070212 D88  0.9-  0.4+  
050312 704  1.2+  0.6+    060302 104  0.2-  0.1-    070214 423  0.5-  0.3-  
050312 704  0.4+  1.2-    060304 D88  0.2+  0.1+    070214 423  0.5-  0.0   
050312 704  0.8+  0.1+    060304 D88  0.2+  0.3-    070214 J76 (3.0-  2.2-) 
050312 704  0.4+  0.6-    060304 D88  0.4+  0.4-    070214 J76  0.6-  0.4-  
050312 704  1.2+  0.3-    060304 349  0.4+  0.2-    070214 J76  0.0   0.4+  
050316 G96  0.4-  0.7-    060304 349  0.4+  0.5-    070215 423  0.4-  0.1+  
050316 G96  0.5-  0.6-    060304 349  0.1-  0.1-    070220 423  0.9-  0.1-  
050316 G96  0.6-  0.5-    060304 D83  0.3+  1.1+    070224 349  0.2+  1.1-  
050316 G96  0.4-  0.8-    060304 D83  0.4-  0.3+    070224 349  0.5+  0.8-  
050330 A13  0.5-  0.3-    060304 D83  1.6+  1.3+    070301 D88  0.6+  0.1-  
050330 A13  0.1-  0.6-    060304 D83  0.0   0.4-    070301 D88  0.7-  0.8-  
050330 A13  0.2-  0.1-    060305 D88  0.0   1.0-    070301 D88  1.6-  0.9-  
050330 A13  0.4-  0.8-    060305 D88  0.5-  0.3+    070309 415  0.2-  0.4+  
050331 360  0.0   0.7-    060305 D88  0.7-  0.1+    070309 415  0.6-  0.5+  
050331 360  0.6+  0.5-    060306 415  0.3+  0.3-    070311 E12  0.4-  0.1-  
050331 360  0.5+  0.4-    060306 415  0.4+  0.6-    070312 215  0.8-  0.3+  
050331 461  0.2+  0.5-    060319 D88  0.4+  0.2-    070313 415  0.7-  0.1+  
050331 461  0.1+  0.6-    060319 D88  1.3+  0.3+    070313 415  0.5-  0.3+  
050331 461  0.1+  0.6-    060319 D88  1.2+  0.5+    070326 E12  0.1-  0.2+  
050331 461  0.3+  0.9-    060320 215  0.2+  0.1-    070407 415  0.2-  0.0   
050331 461  0.0   0.8-    060320 215  0.2-  0.1-    070407 415  0.4-  0.1+  
050404 693  0.4-  1.0-    060321 704  0.3+  0.2+    070411 415  0.0   0.5+  
050404 693  0.2-  0.8-    060321 704  1.1+  1.0+    070411 415  0.4-  0.4+  
050404 693  0.4-  0.5-    060321 704  0.3+  0.3+    070831 413  0.6+  0.2+  
050404 G96  0.3-  0.8-    060321 704  0.4+  0.0     070831 413  0.5+  0.5+  
050404 G96  0.2-  1.0-    060321 704  0.5+  0.1-    070831 413  0.4+  0.3+  
050404 G96  0.2-  1.1-    060323 048  0.5-  0.5+    070831 413  0.5+  0.3+  
050404 G96  0.4-  0.8-    060323 048  0.3+  0.7+    070831 413  0.4+  0.3+  
050410 691  0.0   0.5-    060323 048  0.7-  0.3-    070831 413  0.2+  0.3+  
050410 691  0.2-  0.4-    060323 048  0.2-  0.2-    070906 413  0.5+  0.1+  
050410 691  0.1-  0.4-    060323 048  0.2-  0.5+    070906 413  0.6+  0.5+  
050504 G96  0.3-  0.8-    060329 349  0.7+  0.1+    070906 413  0.7+  0.3+  
050504 G96  0.3-  0.6-    060329 349  0.6+  0.2-    070907 349  0.7+  0.5+  
050504 G96  0.3-  0.8-    060329 349  0.8+  0.3-    070907 349  0.5+  0.0   
050504 G96  0.3-  0.8-    060408 130  0.0   0.4-    070918 E12  0.8+  0.1-  
050513 G96  0.2-  0.8-    060408 130  0.1-  0.4-    070924 423  0.8+  0.4+  
050513 G96  0.1-  0.6-    060408 130  0.6-  0.2+    070924 423  0.7+  0.2+  
050513 G96  0.4-  0.8-    060508 E12  0.7-  0.1-    071006 349  0.5+  0.3-  
050513 G96  0.4-  0.5-    060508 E12  0.2-  0.1-    071006 349  0.7+  0.5-  
051202 703  0.3-  0.1+    060508 E12  0.4+  0.3-    071006 349  0.6+  0.5-  
051202 703  1.1-  0.5+    060508 E12  0.6-  0.4+    071008 474  0.9+  0.8-  
051202 703  0.8-  0.2-    061021 474  0.1-  0.2+    071008 474  0.5+  0.4-  
051202 703  0.5-  0.8+    061021 474  0.1-  0.2-    071019 415  0.3+  0.1-  
051211 699  0.7+  1.7+    061025 D70  1.4-  1.0+    071019 415  0.2+  0.0   
051211 699  0.1-  0.7+    061025 D70  1.4+  1.2+    071019 E12  0.5+  0.3-  
051211 699  0.2+  1.4+    061025 349  0.9+  0.2+    071029 415  0.3+  0.1-  
051211 699  1.0+  0.8+    061025 349  1.0+  0.2+    071029 415  0.2+  0.1-  
2006/                     061025 349  1.0+  0.2+    071108 E12  0.4+  0.5-  
060107 703  0.6-  1.0+    061025 D70  0.4-  0.9-    071109 474  0.4+  0.2+  
060107 703  0.4-  1.3+    061107 349  0.2-  0.3+    071109 474  0.1+  0.4+  
060107 703  0.5+  0.9+    061107 349  0.2-  0.1+    071110 423  0.5+  0.3-  
060107 703  0.8-  0.2+    061107 349  0.3-  0.1+    071110 423  0.4+  0.4-  
060110 704  0.1+  0.2-    061130 349 (2.0+  1.6+)   071112 415  0.3-  0.8-  
060110 704  0.2+  1.3-    061130 349 (2.3+  1.4+)   071112 415  0.1-  0.3-  
060110 704  0.6-  0.4+    061203 349  0.2-  0.3-    071117 D88  0.7-  0.8-  
060110 704  0.0   0.1+    061203 349  0.4-  0.2-    071117 D88  0.2+  1.1-  
060110 704  0.4-  0.5-    061203 349  0.3-  0.2-    071117 D88  1.0-  1.4-  
060115 204  0.0   0.3-    061206 415  0.5+  0.6-    071120 E12  0.2+  0.5-  
060115 204  0.3+  0.1-    061206 415  0.3+  0.3-    071120 E12  0.3+  0.4-  
060118 349  0.1+  0.2+    061217 415  0.1-  0.6-    071202 423  0.4+  0.6-  
060118 349  0.2+  0.3+    061217 415  0.3-  0.5-    071202 423  0.1+  0.4-  
060118 349  0.1+  0.2+    061218 415  0.1+  0.4-    071213 423  0.0   1.2-  
060121 213  0.6-  0.7+    061218 415  0.2+  0.6-    071213 423  0.2-  0.0   
060121 213  0.8-  0.4+    061221 415  0.4+  1.2-    071216 349  0.4-  0.2-  
060121 213  0.5-  0.5+    061221 415  0.2+  0.4-    071216 349  0.1-  0.0   
060121 213  0.8-  0.5+    061223 349  0.2+  1.4+    071217 415  0.1-  0.4-  
060121 213  0.2-  0.0     061223 349  0.5+  1.3+    071226 415  0.2+  0.2+  
060122 232  0.2+  0.2+    061223 349  0.7+  1.0+    071226 415  0.1-  0.3+  
060122 232  0.1+  0.0     061226 415  0.3+  0.5-    071230 423  0.3-  0.8-  
060122 232  0.2-  0.3+    061226 415  0.3-  0.7-    071230 423  0.1-  0.6-  
060123 349  0.3-  0.0     061227 D88  0.3+  0.9+    071230 415  0.6-  0.7-  
060123 349  0.4-  0.1+    061227 D88  0.2-  1.2+    071230 415  0.6-  0.0   
060124 D88  0.2-  0.2+    061227 D88  0.0   1.2+    2008/                   
060124 D88  0.6-  0.3-    061227 349  0.1+  0.1+    080101 349  0.1+  0.7-  
060124 D88  0.5-  0.1+    061227 349  0.1-  0.2-    080101 349  0.1-  0.5-  
060125 213  0.3+  0.4-    061227 349  0.1+  0.3-    080101 349  0.3-  0.3-  
060125 213  0.3+  0.1-    2007/                     080102 D88  0.3+  1.2+  
060125 213  0.2+  0.2-    070106 322  0.5-  0.9-    080102 D88  0.5-  0.9+  
060128 703  0.6+  1.5+    070106 322  0.6-  0.3-    080107 E12  0.2-  0.2-  
060128 703  0.5+  1.7+    070106 322  0.0   0.6-    080208 204  0.9-  0.3+  
060128 703  0.3+  1.6+    070107 349  0.9+  0.5-    080209 204  0.5-  0.6+  
060128 703  0.2+  1.3+    070107 349  1.2+  0.1-    080830 204  0.6+  0.5+  
060204 322  0.9-  0.7+    070107 349  1.3+  0.2+    080830 204  0.1+  0.5+  
060204 322  0.8-  1.1+    070110 415  0.6-  0.3-    080910 E12  0.5+  0.1-  
060204 322  0.3-  0.4+    070110 415  1.1-  0.0     080910 E12  0.3+  0.7-  
060205 349  0.2+  0.2-    070110 E12  0.4-  0.3-    080924 415  0.0   1.3-  
060205 349  0.6+  0.3-    070111 415  0.3-  0.7-    080924 415  0.2-  0.3+  
060205 349  0.8+  0.4-    070111 415  0.3-  0.5-    080930 415  0.8+  0.4-  
060222 644  0.1+  0.1+    070120 J76  0.5-  0.1-    080930 415  0.4+  0.2+  
060222 644  0.1-  0.3+    070120 J76  0.4-  0.2-    081020 215  0.4+  0.6+  
060222 644  0.3-  0.0     070120 J76  0.2+  0.3-    081020 215  0.6+  1.4+  
060225 699  0.0   0.5+    070126 E12  0.6-  0.0     081020 215  0.6+  1.6+  
060225 703  0.4+  0.9+    070130 D88  1.3-  1.1-    081025 A77  0.4-  1.5+  
060225 703  0.1-  0.5+    070130 D88  0.5-  1.1-    081025 A77  0.0   1.5-  
060225 703  0.3+  1.0+    070203 D88  1.0-  1.3-    081027 372  0.8+  0.1+  
060225 699  0.2+  0.8+    070203 D88  0.7-  0.0     081107 204  1.0-  1.3+  
060225 703  0.8+  1.1+    070203 D88  0.1+  0.0     081107 204  0.9-  0.7-  
060225 699  1.6+  1.5+    070204 349  0.6-  0.1+    081117 A77  0.1-  0.3+  
060225 699  0.8+  0.9+    070204 349  1.0-  0.5+    081117 A77  0.2-  0.6-  

NAKANO
         **** Don't distribute anyone except personal use only ****
                (C) Copyright 2009 OAA/ComputingSection
write mail from CFAD0::NAKANO on 2009-01-06 06:55:00(JST).
 
    C/2005 EL173 (LONEOS)

Epoch 2007 Mar. 1.0 TT = JDT 2454160.5  

T 2007 Mar. 5.86988 TT                                  Nakano

q   3.8863407            (2000.0)            P               Q

z  -0.0008689      Peri.  261.49325     +0.02631301     +0.97967021

 +/-0.0000015      Node   344.79638     +0.90469496     -0.10796978

e   1.0033769      Incl.  130.67961     -0.42524659     -0.16908225

From 256 observations 2005 Mar. 3-2007 Oct. 8, mean residual 0".62.

   (1/a)org.= +0.000032, (1/a)fut.= -0.000049 (+/-0.000002), Q= 8.

   The comet has passed 2.82 AU from Jupiter on 2004 Nov. 17 UT.



NAKANO

         **** Don't distribute anyone except personal use only ****

                (C) Copyright 2007 OAA/ComputingSection

write mail from CFAD0::NAKANO on 2007-10-18 07:23:28(JST).

 

 

    C/2005 EL173 (LONEOS)

Epoch 2007 Mar. 1.0 TT = JDT 2454160.5  

T 2007 Mar. 5.87131 TT                                  Nakano

